Weather History for Newcastle, WY

Change the Weather History Date:

Monday, January 27, 2014

  Actual Average (KCUT) Record (KCUT)
Temperature  
Mean Temperature 6 °F 24 °F  
Max Temperature 12 °F 35 °F 55 °F (1982)
Min Temperature 0 °F 14 °F -26 °F (1948)
Degree Days  
Heating Degree Days 59 41  
Month to date heating degree days 1107  
Since 1 July heating degree days 4577  
Cooling Degree Days 0 0  
Month to date cooling degree days 0  
Year to date cooling degree days 0  
Moisture  
Dew Point -4 °F    
Average Humidity 62    
Maximum Humidity 85    
Minimum Humidity 44    
Precipitation  
Precipitation 0.00 in 0.02 in 0.58 in (1944)
Month to date precipitation 0.28  
Year to date precipitation 0.28  
Sea Level Pressure  
Sea Level Pressure 30.18 in    
Wind  
Wind Speed 10 mph (NW)    
Max Wind Speed 16 mph    
Max Gust Speed 21 mph    
Visibility 10 miles    
Events      
T = Trace of Precipitation, MM = Missing Value Source: NWS Daily Summary

Daily Weather History Graph

Daily Weather History Graph

Search for Another Location

Airport:

Trip Planner

Search our weather history database for the weather conditions in past years. The results will help you decide how hot, cold, wet, or windy it might be!

Date:

Astronomy

Jan. 27, 2014 Rise Set
Actual Time 7:19 AM MST 5:01 PM MST
Civil Twilight 6:48 AM MST 5:32 PM MST
Nautical Twilight 6:13 AM MST 6:07 PM MST
Astronomical Twilight 5:39 AM MST 6:41 PM MST
Moon 4:04 AM MST (1/27) 1:48 PM MST (1/27)
Length of Visible Light 10h 43m
Length of Day
9h 41m
Waning Crescent, 14% of the Moon is Illuminated
Jan 27
Waning Crescent
Jan 30
New
Feb 6
First Quarter
Feb 14
Full
Feb 22
Last Quarter

Hourly Weather History & Observations

Time (MST) Temp. Windchill Dew Point Humidity Pressure Visibility Wind Dir Wind Speed Gust Speed Precip Events Conditions
12:15 AM 6.8 °F -6.9 °F -7.6 °F 52% 30.19 in 10.0 mi NW 9.2 mph 17.3 mph N/A   Clear
12:35 AM 5.0 °F -9.1 °F -5.8 °F 61% 30.18 in 10.0 mi NW 9.2 mph - N/A   Clear
12:55 AM 5.0 °F -8.1 °F -5.8 °F 61% 30.19 in 10.0 mi NW 8.1 mph 16.1 mph N/A   Clear
1:15 AM 5.0 °F -10.0 °F -5.8 °F 61% 30.19 in 10.0 mi NW 10.4 mph - N/A   Clear
1:35 AM 5.0 °F -10.8 °F -4.0 °F 66% 30.18 in 10.0 mi NW 11.5 mph 19.6 mph N/A   Clear
1:55 AM 3.2 °F -15.3 °F -4.0 °F 72% 30.18 in 10.0 mi NW 15.0 mph 19.6 mph N/A   Clear
2:15 AM 3.2 °F -14.6 °F -4.0 °F 72% 30.17 in 10.0 mi NW 13.8 mph - N/A   Clear
2:35 AM 3.2 °F -11.3 °F -4.0 °F 72% 30.18 in 10.0 mi NW 9.2 mph - N/A   Clear
2:55 AM 3.2 °F -13.9 °F -4.0 °F 72% 30.19 in 10.0 mi NW 12.7 mph - N/A   Clear
3:15 AM 1.4 °F -16.1 °F -4.0 °F 78% 30.19 in 10.0 mi NNW 12.7 mph 17.3 mph N/A   Clear
3:35 AM 1.4 °F -13.5 °F -5.8 °F 72% 30.18 in 10.0 mi North 9.2 mph 17.3 mph N/A   Clear
3:55 AM 1.4 °F -16.1 °F -5.8 °F 72% 30.18 in 10.0 mi NNW 12.7 mph 17.3 mph N/A   Clear
4:15 AM 1.4 °F -14.5 °F -7.6 °F 66% 30.19 in 10.0 mi NW 10.4 mph - N/A   Clear
4:35 AM 1.4 °F -14.5 °F -7.6 °F 66% 30.18 in 10.0 mi NW 10.4 mph - N/A   Clear
4:55 AM 1.4 °F -14.5 °F -7.6 °F 66% 30.17 in 10.0 mi NNW 10.4 mph - N/A   Clear
5:15 AM 1.4 °F -14.5 °F -7.6 °F 66% 30.17 in 10.0 mi NW 10.4 mph 16.1 mph N/A   Clear
5:35 AM 1.4 °F -14.5 °F -9.4 °F 61% 30.17 in 10.0 mi NW 10.4 mph - N/A   Clear
5:55 AM 1.4 °F -14.5 °F -7.6 °F 66% 30.17 in 10.0 mi NNW 10.4 mph - N/A   Clear
6:15 AM 1.4 °F -14.5 °F -9.4 °F 61% 30.17 in 10.0 mi NNW 10.4 mph - N/A   Clear
6:35 AM -0.4 °F -10.4 °F -9.4 °F 66% 30.17 in 10.0 mi North 4.6 mph - N/A   Clear
6:55 AM -0.4 °F -12.0 °F -11.2 °F 60% 30.18 in 10.0 mi NNW 5.8 mph - N/A   Clear
7:15 AM -0.4 °F -13.4 °F -11.2 °F 60% 30.19 in 10.0 mi NNW 6.9 mph - N/A   Clear
7:35 AM -0.4 °F -12.0 °F -11.2 °F 60% 30.19 in 10.0 mi NNW 5.8 mph - N/A   Clear
7:55 AM -0.4 °F -12.0 °F -11.2 °F 60% 30.20 in 10.0 mi NW 5.8 mph - N/A   Clear
8:15 AM 1.4 °F -9.9 °F -9.4 °F 61% 30.20 in 10.0 mi NW 5.8 mph - N/A   Clear
8:35 AM 1.4 °F -8.3 °F -9.4 °F 61% 30.20 in 10.0 mi NNW 4.6 mph - N/A   Clear
8:55 AM 3.2 °F -9.1 °F -9.4 °F 56% 30.20 in 10.0 mi NW 6.9 mph - N/A   Clear
9:15 AM 5.0 °F -6.9 °F -9.4 °F 52% 30.21 in 10.0 mi NW 6.9 mph - N/A   Clear
9:35 AM 5.0 °F -5.6 °F -9.4 °F 52% 30.20 in 10.0 mi NW 5.8 mph - N/A   Clear
9:55 AM 6.8 °F -7.8 °F -7.6 °F 52% 30.21 in 10.0 mi NW 10.4 mph - N/A   Clear
10:15 AM 6.8 °F -8.6 °F -7.6 °F 52% 30.20 in 10.0 mi NW 11.5 mph - N/A   Clear
10:35 AM 8.6 °F -6.3 °F -5.8 °F 52% 30.21 in 10.0 mi NNW 11.5 mph - N/A   Clear
10:55 AM 8.6 °F -3.7 °F -5.8 °F 52% 30.21 in 10.0 mi NNW 8.1 mph - N/A   Clear
11:15 AM 10.4 °F -3.3 °F -4.0 °F 52% 30.20 in 10.0 mi NW 10.4 mph - N/A   Clear
11:35 AM 10.4 °F -4.8 °F -4.0 °F 52% 30.19 in 10.0 mi NW 12.7 mph - N/A   Clear
11:55 AM 10.4 °F -6.0 °F -5.8 °F 48% 30.19 in 10.0 mi NW 15.0 mph 18.4 mph N/A   Clear
12:15 PM 10.4 °F -2.4 °F -7.6 °F 44% 30.18 in 10.0 mi NNW 9.2 mph - N/A   Scattered Clouds
12:35 PM 10.4 °F -4.1 °F -5.8 °F 48% 30.17 in 10.0 mi NNW 11.5 mph - N/A   Scattered Clouds
12:55 PM 10.4 °F -2.4 °F -5.8 °F 48% 30.16 in 10.0 mi NNW 9.2 mph - N/A   Scattered Clouds
1:15 PM 12.2 °F -1.8 °F -4.0 °F 48% 30.15 in 10.0 mi NNW 11.5 mph - N/A   Scattered Clouds
1:35 PM 12.2 °F -1.0 °F -5.8 °F 45% 30.15 in 10.0 mi NNW 10.4 mph 18.4 mph N/A   Scattered Clouds
1:55 PM 12.2 °F -3.7 °F -5.8 °F 45% 30.15 in 10.0 mi WNW 15.0 mph 20.7 mph N/A   Clear
2:15 PM 12.2 °F -1.0 °F -5.8 °F 45% 30.14 in 10.0 mi NW 10.4 mph - N/A   Clear
2:35 PM 12.2 °F -3.1 °F -5.8 °F 45% 30.14 in 10.0 mi NW 13.8 mph 19.6 mph N/A   Clear
2:55 PM 12.2 °F -2.5 °F -4.0 °F 48% 30.15 in 10.0 mi NW 12.7 mph 19.6 mph N/A   Clear
3:15 PM 12.2 °F -2.5 °F -2.2 °F 53% 30.15 in 10.0 mi NNW 12.7 mph 17.3 mph N/A   Clear
3:35 PM 12.2 °F -3.1 °F -2.2 °F 53% 30.15 in 10.0 mi NNW 13.8 mph 19.6 mph N/A   Clear
3:55 PM 12.2 °F -3.7 °F -4.0 °F 48% 30.15 in 10.0 mi NW 15.0 mph - N/A   Clear
4:15 PM 12.2 °F -3.7 °F -2.2 °F 53% 30.15 in 10.0 mi NNW 15.0 mph - N/A   Clear
4:35 PM 12.2 °F -4.3 °F -0.4 °F 57% 30.16 in 10.0 mi NNW 16.1 mph - N/A   Clear
4:55 PM 12.2 °F -1.8 °F -0.4 °F 57% 30.15 in 10.0 mi NW 11.5 mph - N/A   Scattered Clouds
5:15 PM 10.4 °F -5.4 °F -2.2 °F 57% 30.16 in 10.0 mi NW 13.8 mph - N/A   Clear
5:35 PM 10.4 °F -4.1 °F -0.4 °F 62% 30.16 in 10.0 mi NNW 11.5 mph - N/A   Clear
5:55 PM 10.4 °F -2.4 °F -0.4 °F 62% 30.16 in 10.0 mi NNW 9.2 mph - N/A   Scattered Clouds
6:15 PM 10.4 °F -3.3 °F -0.4 °F 62% 30.17 in 10.0 mi NNW 10.4 mph - N/A   Scattered Clouds
6:35 PM 10.4 °F -3.3 °F -0.4 °F 62% 30.17 in 10.0 mi NNW 10.4 mph - N/A   Scattered Clouds
6:55 PM 10.4 °F -2.4 °F -0.4 °F 62% 30.18 in 10.0 mi NNW 9.2 mph - N/A   Scattered Clouds
7:15 PM 10.4 °F -0.4 °F -0.4 °F 62% 30.17 in 10.0 mi NW 6.9 mph - N/A   Scattered Clouds
7:35 PM 10.4 °F -0.4 °F -0.4 °F 62% 30.17 in 10.0 mi WNW 6.9 mph - N/A   Scattered Clouds
7:55 PM 10.4 °F -1.5 °F -0.4 °F 62% 30.19 in 10.0 mi NW 8.1 mph - N/A   Scattered Clouds
8:15 PM 10.4 °F -1.5 °F 1.4 °F 67% 30.19 in 10.0 mi NW 8.1 mph - N/A   Scattered Clouds
8:35 PM 10.4 °F -1.5 °F 1.4 °F 67% 30.20 in 10.0 mi NW 8.1 mph 17.3 mph N/A   Scattered Clouds
8:55 PM 8.6 °F -5.5 °F 1.4 °F 73% 30.20 in 10.0 mi NW 10.4 mph - N/A   Mostly Cloudy
9:15 PM 8.6 °F -4.7 °F 1.4 °F 73% 30.20 in 10.0 mi NW 9.2 mph 17.3 mph N/A   Mostly Cloudy
9:35 PM 8.6 °F -3.7 °F 1.4 °F 73% 30.21 in 10.0 mi NW 8.1 mph - N/A   Mostly Cloudy
9:55 PM 6.8 °F -4.8 °F 1.4 °F 79% 30.20 in 10.0 mi NW 6.9 mph - N/A   Scattered Clouds
10:15 PM 5.0 °F -4.1 °F 1.4 °F 85% 30.20 in 10.0 mi NNW 4.6 mph - N/A   Clear
10:35 PM 5.0 °F -4.1 °F 1.4 °F 85% 30.20 in 10.0 mi NNW 4.6 mph - N/A   Clear
10:55 PM 5.0 °F -2.1 °F 1.4 °F 85% 30.20 in 10.0 mi NNW 3.5 mph - N/A   Clear
11:15 PM 5.0 °F -5.6 °F 1.4 °F 85% 30.21 in 10.0 mi NNW 5.8 mph - N/A   Clear
11:35 PM 3.2 °F -6.2 °F -0.4 °F 85% 30.21 in 10.0 mi NNW 4.6 mph - N/A   Clear
11:55 PM 5.0 °F -8.1 °F -0.4 °F 78% 30.21 in 10.0 mi North 8.1 mph - N/A   Clear